| time (UTC) | temp F | wind direction | speed MPH | gust MPH | rain 1hr in | rain 24hr in | rain mn in | humidity % | barometer mb |
| 20260904090042 | 62 | 192 | 0.0 | 0.0 | 0.00 | 0.00 | 0.00 | 88 | 1017.2 |
| 20260904084540 | 62 | 192 | 0.0 | 0.0 | 0.00 | 0.00 | 0.00 | 88 | 1017.2 |
| 20260904083038 | 62 | 192 | 0.0 | 0.0 | 0.00 | 0.00 | 0.00 | 88 | 1017.3 |
| 20260904081537 | 62 | 192 | 0.0 | 0.0 | 0.00 | 0.00 | 0.00 | 88 | 1017.3 |
| 20260904080035 | 62 | 192 | 0.0 | 5.0 | 0.00 | 0.00 | 0.00 | 88 | 1017.4 |
| 20260904074536 | 63 | 192 | 0.0 | 0.0 | 0.00 | 0.00 | 0.00 | 88 | 1017.4 |
| 20260904073033 | 63 | 192 | 0.0 | 0.0 | 0.00 | 0.00 | 0.00 | 88 | 1017.3 |
| 20260904071529 | 63 | 192 | 0.0 | 3.0 | 0.00 | 0.00 | 0.00 | 87 | 1017.1 |
| 20260904070027 | 63 | 192 | 0.0 | 3.0 | 0.00 | 0.00 | 0.00 | 86 | 1017.1 |
| 20260904064525 | 64 | 192 | 0.0 | 3.0 | 0.00 | 0.00 | 0.00 | 85 | 1017.1 |
| 20260904063028 | 65 | 192 | 0.0 | 0.0 | 0.00 | 0.00 | 0.00 | 83 | 1017.3 |
| 20260904061528 | 65 | 192 | 0.0 | 1.0 | 0.00 | 0.00 | 0.00 | 81 | 1017.3 |
| 20260904060024 | 65 | 192 | 0.0 | 0.0 | 0.00 | 0.00 | 0.00 | 81 | 1017.2 |
| 20260904054523 | 66 | 192 | 0.0 | 0.0 | 0.00 | 0.00 | 0.00 | 81 | 1017.1 |
| 20260904053027 | 66 | 192 | 0.0 | 0.0 | 0.00 | 0.00 | 0.00 | 79 | 1017.3 |
| 20260904051549 | 66 | 192 | 0.0 | 0.0 | 0.00 | 0.00 | 0.00 | 79 | 1017.3 |
| 20260904050022 | 66 | 192 | 0.0 | 0.0 | 0.00 | 0.00 | 0.00 | 78 | 1017.4 |
| 20260904044524 | 66 | 192 | 0.0 | 0.0 | 0.00 | 0.00 | 0.00 | 78 | 1017.4 |
| 20260904043021 | 66 | 192 | 0.0 | 0.0 | 0.00 | 0.00 | 0.00 | 78 | 1017.4 |
| 20260904041523 | 66 | 192 | 0.0 | 0.0 | 0.00 | 0.00 | 0.00 | 78 | 1017.1 |
| 20260904040025 | 66 | 192 | 0.0 | 0.0 | 0.00 | 0.00 | 0.00 | 78 | 1017.2 |
| 20260904034522 | 67 | 192 | 0.0 | 0.0 | 0.00 | 0.00 | 0.00 | 77 | 1017.2 |
| 20260904033022 | 67 | 192 | 0.0 | 0.0 | 0.00 | 0.00 | 0.00 | 75 | 1017.0 |
| 20260904031519 | 68 | 192 | 0.0 | 0.0 | 0.00 | 0.00 | 0.00 | 75 | 1017.0 |
| 20260904030018 | 68 | 192 | 0.0 | 3.0 | 0.00 | 0.00 | 0.00 | 74 | 1016.9 |
| 20260904024517 | 68 | 192 | 0.0 | 0.0 | 0.00 | 0.00 | 0.00 | 74 | 1017.0 |
| 20260904023017 | 69 | 192 | 0.0 | 0.0 | 0.00 | 0.00 | 0.00 | 74 | 1017.1 |
| 20260904021517 | 69 | 192 | 0.0 | 0.0 | 0.00 | 0.00 | 0.00 | 74 | 1017.1 |
| 20260904020016 | 69 | 192 | 0.0 | 0.0 | 0.00 | 0.00 | 0.00 | 74 | 1017.1 |
| 20260904014515 | 69 | 192 | 0.0 | 2.0 | 0.00 | 0.00 | 0.00 | 74 | 1017.1 |
| 20260904013015 | 69 | 192 | 0.0 | 4.0 | 0.00 | 0.00 | 0.00 | 73 | 1017.2 |
| 20260904011517 | 70 | 192 | 0.0 | 6.0 | 0.00 | 0.00 | 0.00 | 72 | 1017.2 |
| 20260904010033 | 70 | 192 | 0.0 | 4.0 | 0.00 | 0.00 | 0.00 | 72 | 1017.3 |
| 20260904004513 | 70 | 192 | 3.0 | 7.0 | 0.00 | 0.00 | 0.00 | 71 | 1017.4 |
| 20260904003014 | 71 | 193 | 2.0 | 9.0 | 0.00 | 0.00 | 0.00 | 69 | 1017.5 |
| 20260904001511 | 71 | 194 | 1.0 | 7.0 | 0.00 | 0.00 | 0.00 | 68 | 1017.3 |
| 20260904000009 | 72 | 194 | 2.0 | 10.0 | 0.00 | 0.00 | 0.00 | 68 | 1017.4 |
| 20260903234510 | 72 | 194 | 2.0 | 8.0 | 0.00 | 0.00 | 0.00 | 66 | 1017.5 |
| 20260903233008 | 73 | 195 | 1.0 | 8.0 | 0.00 | 0.00 | 0.00 | 66 | 1017.5 |
| 20260903231507 | 73 | 195 | 2.0 | 9.0 | 0.00 | 0.00 | 0.00 | 66 | 1017.7 |
| 20260903230007 | 73 | 193 | 1.0 | 12.0 | 0.00 | 0.00 | 0.00 | 65 | 1017.9 |
| 20260903224504 | 73 | 193 | 1.0 | 10.0 | 0.00 | 0.00 | 0.00 | 65 | 1017.9 |
| 20260903223008 | 73 | 191 | 2.0 | 7.0 | 0.00 | 0.00 | 0.00 | 65 | 1017.9 |
| 20260903221502 | 73 | 185 | 1.0 | 8.0 | 0.00 | 0.00 | 0.00 | 66 | 1018.2 |
| 20260903220101 | 72 | 184 | 2.0 | 8.0 | 0.00 | 0.00 | 0.00 | 65 | 1018.3 |
| 20260903214559 | 73 | 184 | 0.0 | 6.0 | 0.00 | 0.00 | 0.00 | 65 | 1018.4 |
| 20260903213102 | 74 | 184 | 2.0 | 8.0 | 0.00 | 0.00 | 0.00 | 63 | 1018.5 |
| 20260903211557 | 74 | 184 | 2.0 | 8.0 | 0.00 | 0.00 | 0.00 | 64 | 1018.6 |
| 20260903210108 | 73 | 184 | 1.0 | 8.0 | 0.00 | 0.00 | 0.00 | 64 | 1018.8 |
| 20260903204616 | 72 | 183 | 1.0 | 11.0 | 0.00 | 0.00 | 0.00 | 65 | 1019.0 |
| 20260903203052 | 73 | 180 | 2.0 | 7.0 | 0.00 | 0.00 | 0.00 | 63 | 1019.0 |
| 20260903201551 | 73 | 180 | 1.0 | 8.0 | 0.00 | 0.00 | 0.00 | 64 | 1019.1 |
| 20260903200052 | 72 | 180 | 1.0 | 6.0 | 0.00 | 0.00 | 0.00 | 66 | 1019.2 |
| 20260903194544 | 71 | 180 | 0.0 | 8.0 | 0.00 | 0.00 | 0.00 | 67 | 1019.4 |
| 20260903193043 | 71 | 180 | 1.0 | 4.0 | 0.00 | 0.00 | 0.00 | 67 | 1019.6 |
| 20260903191542 | 71 | 180 | 0.0 | 4.0 | 0.00 | 0.00 | 0.00 | 67 | 1019.7 |
| 20260903190040 | 72 | 180 | 0.0 | 7.0 | 0.00 | 0.00 | 0.00 | 66 | 1019.9 |
| 20260903184543 | 72 | 180 | 1.0 | 7.0 | 0.00 | 0.00 | 0.00 | 65 | 1020.0 |
| 20260903183038 | 71 | 180 | 1.0 | 9.0 | 0.00 | 0.00 | 0.00 | 66 | 1019.9 |
| 20260903181537 | 72 | 180 | 2.0 | 6.0 | 0.00 | 0.00 | 0.00 | 66 | 1020.1 |
| 20260903180038 | 71 | 180 | 1.0 | 7.0 | 0.00 | 0.00 | 0.00 | 67 | 1020.0 |
| 20260903174531 | 70 | 180 | 0.0 | 6.0 | 0.00 | 0.00 | 0.00 | 70 | 1020.2 |
| 20260903173027 | 69 | 180 | 0.0 | 4.0 | 0.00 | 0.00 | 0.00 | 72 | 1020.3 |
| 20260903171523 | 67 | 180 | 0.0 | 5.0 | 0.00 | 0.00 | 0.00 | 76 | 1020.3 |
| 20260903170022 | 66 | 180 | 0.0 | 3.0 | 0.00 | 0.00 | 0.00 | 78 | 1020.5 |
| 20260903164516 | 65 | 180 | 0.0 | 3.0 | 0.00 | 0.00 | 0.00 | 80 | 1020.5 |
| 20260903163012 | 64 | 180 | 0.0 | 3.0 | 0.00 | 0.00 | 0.00 | 81 | 1020.6 |
| 20260903161509 | 63 | 180 | 0.0 | 2.0 | 0.00 | 0.00 | 0.00 | 82 | 1020.7 |
| 20260903160020 | 62 | 180 | 0.0 | 2.0 | 0.00 | 0.00 | 0.00 | 82 | 1020.9 |
| 20260903154506 | 62 | 180 | 0.0 | 3.0 | 0.00 | 0.00 | 0.00 | 83 | 1020.9 |
| 20260903153006 | 61 | 180 | 0.0 | 2.0 | 0.00 | 0.00 | 0.00 | 83 | 1021.0 |
| 20260903151505 | 61 | 180 | 0.0 | 1.0 | 0.00 | 0.00 | 0.00 | 84 | 1020.9 |
| 20260903150014 | 60 | 180 | 0.0 | 5.0 | 0.00 | 0.00 | 0.00 | 84 | 1020.9 |
| 20260903144505 | 60 | 180 | 0.0 | 3.0 | 0.00 | 0.00 | 0.00 | 85 | 1020.9 |
| 20260903143003 | 60 | 180 | 0.0 | 4.0 | 0.00 | 0.00 | 0.00 | 85 | 1020.9 |
| 20260903141501 | 60 | 180 | 0.0 | 4.0 | 0.00 | 0.00 | 0.00 | 85 | 1020.8 |
| 20260903140112 | 59 | 180 | 0.0 | 4.0 | 0.00 | 0.00 | 0.00 | 85 | 1020.7 |
| 20260903134558 | 59 | 180 | 0.0 | 2.0 | 0.00 | 0.00 | 0.00 | 85 | 1020.5 |
| 20260903133102 | 59 | 181 | 0.0 | 3.0 | 0.00 | 0.00 | 0.00 | 84 | 1020.5 |
| 20260903131556 | 60 | 180 | 0.0 | 3.0 | 0.00 | 0.00 | 0.00 | 84 | 1020.5 |
| 20260903130054 | 60 | 181 | 0.0 | 1.0 | 0.00 | 0.00 | 0.00 | 84 | 1020.6 |
| 20260903124557 | 60 | 181 | 0.0 | 3.0 | 0.00 | 0.00 | 0.00 | 84 | 1020.7 |
| 20260903123053 | 60 | 180 | 0.0 | 0.0 | 0.00 | 0.00 | 0.00 | 84 | 1020.6 |
| 20260903121553 | 60 | 180 | 0.0 | 3.0 | 0.00 | 0.00 | 0.00 | 84 | 1020.6 |
| 20260903114551 | 60 | 181 | 0.0 | 3.0 | 0.00 | 0.00 | 0.00 | 83 | 1020.7 |
| 20260903113049 | 60 | 181 | 0.0 | 5.0 | 0.00 | 0.00 | 0.00 | 83 | 1020.9 |
| 20260903111549 | 60 | 181 | 0.0 | 1.0 | 0.00 | 0.00 | 0.00 | 83 | 1021.0 |
| 20260903110048 | 60 | 180 | 0.0 | 0.0 | 0.00 | 0.00 | 0.00 | 83 | 1021.1 |
| 20260903104549 | 60 | 181 | 0.0 | 0.0 | 0.00 | 0.00 | 0.00 | 83 | 1021.0 |
| 20260903103047 | 60 | 181 | 0.0 | 0.0 | 0.00 | 0.00 | 0.00 | 83 | 1021.0 |
| 20260903101549 | 60 | 181 | 0.0 | 5.0 | 0.00 | 0.00 | 0.00 | 84 | 1021.0 |
| 20260903100045 | 60 | 181 | 0.0 | 1.0 | 0.00 | 0.00 | 0.00 | 84 | 1021.1 |
| 20260903094544 | 60 | 181 | 0.0 | 4.0 | 0.00 | 0.00 | 0.00 | 83 | 1021.0 |
| 20260903093059 | 60 | 181 | 0.0 | 3.0 | 0.00 | 0.00 | 0.00 | 83 | 1021.1 |
| 20260903091541 | 60 | 181 | 0.0 | 0.0 | 0.00 | 0.00 | 0.00 | 83 | 1021.4 |